User: anonymous   Login
Location: Blanot
(47.1713°N, 4.2340°E)
Time: 08:55:08
(UTC+00:00)
Language:

Okean 3 - Orbit

View from above orbital plane
View from above orbital plane
View from above satellite
View from above satellite

Ground track
Ground track

The orbit data is extracted from the following two-line orbital elements,

1 21397U 91039A   20272.93186318 +.00000325 +00000-0 +28694-4 0  9999
2 21397 082.5194 078.3312 0017809 178.5242 181.6034 14.92961721567701
Epoch (UTC): 28 September 2020 22:21:52
Eccentricity: 0.0017809
inclination: 82.5194°
perigee height: 576 km
apogee height: 601 km
right ascension of ascending node: 78.3312°
argument of perigee: 178.5242°
revolutions per day: 14.92961721
mean anomaly at epoch: 181.6034°
orbit number at epoch: 56770

The dashed part of the orbit path shows where the satellite is in the earth's shadow,  

DLR